Simultaneous Nadir Overpasses (SNOs) Predictions

Prediction of SNOs between AQUA and METOP-C Satellite Orbit:

Table of predicted SNOs for the next 14.0 days since TLE Epoch: 1/15/2022
Index Date (AQUA) Time (AQUA) Lat,Lon (AQUA) SZA (AQUA ) Date (METOP-C) Time (METOP-C) Lat,Lon (METOP-C) SZA (METOP-C ) Distance(km) Time Diff (sec)
1 01/15/2022 13:52:42 73.73, -33.64 94.84 01/15/2022 13:51:38 73.73, -33.60 94.84 1.49 64
2 01/15/2022 14:42:09 -73.79, 133.86 85.10 01/15/2022 14:42:18 -73.80, 133.90 85.10 1.20 9
3 01/15/2022 15:31:42 74.09, -59.17 95.21 01/15/2022 15:32:52 74.10, -58.03 95.18 34.89 70
4 01/18/2022 09:26:56 73.70, 32.88 94.26 01/18/2022 09:26:01 73.72, 32.78 94.29 3.50 55
5 01/18/2022 10:16:24 -73.81,-159.72 85.63 01/18/2022 10:16:41 -73.80,-159.70 85.65 1.67 17
6 01/18/2022 11:06:02 74.37, 6.63 94.97 01/18/2022 11:07:09 74.39, 9.10 94.89 74.13 67
7 01/21/2022 05:01:11 73.73, 99.25 93.70 01/21/2022 05:00:23 73.75, 99.27 93.73 2.11 48
8 01/21/2022 05:50:38 -73.79, -93.23 86.25 01/21/2022 05:51:04 -73.79, -93.30 86.24 2.20 26
9 01/24/2022 00:35:24 73.73, 165.71 93.06 01/24/2022 00:34:45 73.73, 165.64 93.07 2.26 39
10 01/24/2022 01:24:52 -73.83, -26.88 86.84 01/24/2022 01:25:25 -73.83, -26.79 86.85 2.69 33
11 01/26/2022 20:09:38 73.74,-127.87 92.38 01/26/2022 20:09:07 73.76,-127.89 92.40 1.87 31
12 01/26/2022 20:59:06 -73.84, 39.55 87.52 01/26/2022 20:59:48 -73.82, 39.58 87.56 3.03 42



Historial Predications of SNOs between AQUA and METOP-C
